Indianapolis, IN

6:03 PM EDT on July 23, 2019 (GMT -0400)
Indianapolis Terry

Weather History for KTYQ - May, 2019

Change the Weather History Date:

Sunday, May 5, 2019

  Actual Average (WUND) Record (WUND)
Temperature  
Mean Temperature 54 °F -  
Max Temperature 67 °F - - (-1)
Min Temperature 42 °F - - (-1)
Degree Days  
Heating Degree Days 10    
Growing Degree Days 4 (Base 50)    
Moisture  
Dew Point 47 °F    
Average Humidity 79    
Maximum Humidity 100    
Minimum Humidity 48    
Precipitation  
Precipitation 0.00 in - - ()
Sea Level Pressure  
Sea Level Pressure 29.91 in    
Wind  
Wind Speed 5 mph (North)    
Max Wind Speed 10 mph    
Max Gust Speed 10 mph    
Visibility 10 miles    
Events      
Averages and records for this station are not official NWS values.
T = Trace of Precipitation, MM = Missing Value Source: NWS Daily Summary

Daily Weather History Graph

Daily Weather History Graph

Search for Another Location

Airport or City:

Astronomy

May. 05, 2019 Rise Set
Actual Time 6:40 AM EDT 8:43 PM EDT
Civil Twilight 6:10 AM EDT 9:13 PM EDT
Nautical Twilight 5:34 AM EDT 9:49 PM EDT
Astronomical Twilight 4:55 AM EDT 10:29 PM EDT
Moon 7:24 AM EDT (5/5) 9:36 PM EDT (5/5)
Length of Visible Light 15h 02m
Length of Day
14h 03m
New Moon, 1% of the Moon is Illuminated
May 5
New Moon
May 11
First Quarter
May 18
Full
May 26
Last Quarter
Jun 3
New

Hourly Weather History & Observations

Time (EDT) Temp. Windchill Dew Point Humidity Pressure Visibility Wind Dir Wind Speed Gust Speed Precip Events Conditions
12:15 AM 47.8 °F - 47.8 °F 100% 29.91 in 10.0 mi NNE 4.6 mph - N/A   Clear
12:35 AM 47.8 °F - 47.8 °F 100% 29.91 in 10.0 mi NE 4.6 mph - N/A   Clear
12:55 AM 47.3 °F - 47.3 °F 100% 29.91 in 10.0 mi NE 3.5 mph - N/A   Clear
1:15 AM 46.8 °F - 46.8 °F 100% 29.91 in 10.0 mi NNE 3.5 mph - N/A   Clear
1:35 AM 46.0 °F 43.9 °F 46.0 °F 100% 29.90 in 10.0 mi NNE 4.6 mph - N/A   Clear
1:55 AM 45.7 °F 43.4 °F 45.7 °F 100% 29.90 in 10.0 mi NNE 4.6 mph - N/A   Clear
2:15 AM 45.5 °F 44.2 °F 45.5 °F 100% 29.90 in 10.0 mi North 3.5 mph - N/A   Clear
2:35 AM 44.6 °F 42.2 °F 44.6 °F 100% 29.89 in 10.0 mi North 4.6 mph - N/A   Clear
2:55 AM 44.6 °F 43.1 °F 44.6 °F 100% 29.89 in 10.0 mi North 3.5 mph - N/A   Clear
3:15 AM 44.4 °F 42.0 °F 44.4 °F 100% 29.88 in 10.0 mi North 4.6 mph - N/A   Clear
3:35 AM 43.5 °F 40.9 °F 43.5 °F 100% 29.88 in 10.0 mi North 4.6 mph - N/A   Clear
3:55 AM 43.0 °F 41.3 °F 43.0 °F 100% 29.88 in 10.0 mi NNE 3.5 mph - N/A   Clear
4:15 AM 43.0 °F 40.3 °F 43.0 °F 100% 29.88 in 10.0 mi North 4.6 mph - N/A   Clear
4:35 AM 42.4 °F 39.6 °F 42.4 °F 100% 29.88 in 10.0 mi North 4.6 mph - N/A   Clear
4:55 AM 42.8 °F 39.3 °F 42.8 °F 100% 29.88 in 10.0 mi North 5.8 mph - N/A   Clear
5:15 AM 43.0 °F 39.5 °F 43.0 °F 100% 29.88 in 10.0 mi North 5.8 mph - N/A   Clear
5:35 AM 43.2 °F 39.7 °F 43.2 °F 100% 29.88 in 10.0 mi North 5.8 mph - N/A   Clear
5:55 AM 43.0 °F 39.5 °F 43.0 °F 100% 29.88 in 10.0 mi North 5.8 mph - N/A   Clear
6:15 AM 43.0 °F 39.5 °F 43.0 °F 100% 29.89 in 7.0 mi North 5.8 mph - N/A   Clear
6:35 AM 42.8 °F 40.1 °F 42.8 °F 100% 29.89 in 7.0 mi North 4.6 mph - N/A   Clear
6:55 AM 43.2 °F 39.0 °F 43.2 °F 100% 29.89 in 7.0 mi North 6.9 mph - N/A   Clear
7:15 AM 43.0 °F 40.3 °F 43.0 °F 100% 29.90 in 5.0 mi North 4.6 mph - N/A   Clear
7:35 AM 44.1 °F 42.5 °F 44.1 °F 100% 29.91 in 5.0 mi North 3.5 mph - N/A   Clear
7:55 AM 45.7 °F 42.7 °F 45.7 °F 100% 29.91 in 7.0 mi North 5.8 mph - N/A   Clear
8:15 AM 47.1 °F - 47.1 °F 100% 29.91 in 7.0 mi North 5.8 mph - N/A   Clear
8:35 AM 48.6 °F - 47.5 °F 96% 29.92 in 10.0 mi North 6.9 mph - N/A   Clear
8:55 AM 50.0 °F - 47.7 °F 92% 29.92 in 10.0 mi NNE 4.6 mph - N/A   Clear
9:15 AM 51.1 °F - 46.8 °F 85% 29.93 in 10.0 mi North 5.8 mph - N/A   Clear
9:35 AM 52.3 °F - 46.0 °F 79% 29.93 in 10.0 mi NNE 8.1 mph - N/A   Clear
9:55 AM 53.6 °F - 47.3 °F 79% 29.94 in 10.0 mi NNE 8.1 mph - N/A   Clear
10:15 AM 54.5 °F - 48.2 °F 79% 29.93 in 10.0 mi NNE 8.1 mph - N/A   Clear
10:35 AM 55.4 °F - 48.0 °F 76% 29.92 in 10.0 mi NNE 8.1 mph - N/A   Clear
10:55 AM 56.3 °F - 48.6 °F 75% 29.92 in 10.0 mi NNE 9.2 mph - N/A   Clear
11:15 AM 57.4 °F - 49.6 °F 75% 29.93 in 10.0 mi NNE 8.1 mph - N/A   Clear
11:35 AM 58.3 °F - 48.7 °F 71% 29.93 in 10.0 mi NNE 8.1 mph - N/A   Clear
11:55 AM 59.0 °F - 47.8 °F 66% 29.94 in 10.0 mi North 10.4 mph - N/A   Clear
12:15 PM 60.3 °F - 47.7 °F 63% 29.94 in 10.0 mi North 5.8 mph - N/A   Clear
12:35 PM 60.8 °F - 45.3 °F 57% 29.93 in 10.0 mi North 10.4 mph - N/A   Clear
12:55 PM 61.3 °F - 46.8 °F 59% 29.93 in 10.0 mi NNE 6.9 mph 10.4 mph N/A   Clear
1:15 PM 62.8 °F - 48.7 °F 60% 29.94 in 10.0 mi NNE 5.8 mph - N/A   Clear
1:35 PM 62.8 °F - 47.3 °F 57% 29.93 in 10.0 mi NNW 5.8 mph - N/A   Clear
1:55 PM 63.1 °F - 46.4 °F 54% 29.92 in 10.0 mi ENE 3.5 mph - N/A   Clear
2:15 PM 63.5 °F - 46.0 °F 53% 29.92 in 10.0 mi NE 3.5 mph - N/A   Clear
2:35 PM 64.4 °F - 47.8 °F 55% 29.91 in 3.0 mi ENE 3.5 mph - N/A   Haze
2:55 PM 64.4 °F - 46.6 °F 52% 29.91 in 10.0 mi ENE 3.5 mph - N/A   Clear
3:15 PM 65.1 °F - 46.4 °F 51% 29.91 in 10.0 mi North 8.1 mph - N/A   Clear
3:35 PM 65.8 °F - 47.7 °F 52% 29.91 in 10.0 mi NE 5.8 mph - N/A   Clear
3:55 PM 65.8 °F - 45.7 °F 48% 29.91 in 10.0 mi NNW 3.5 mph - N/A   Clear
4:15 PM 66.0 °F - 46.8 °F 50% 29.90 in 10.0 mi NNE 8.1 mph - N/A   Clear
4:35 PM 66.2 °F - 46.8 °F 50% 29.90 in 10.0 mi NW 8.1 mph - N/A   Clear
4:55 PM 67.1 °F - 48.0 °F 50% 29.90 in 10.0 mi NE 8.1 mph - N/A   Clear
5:15 PM 66.6 °F - 46.4 °F 48% 29.89 in 10.0 mi WNW 5.8 mph - N/A   Clear
5:35 PM 66.4 °F - 46.6 °F 49% 29.89 in 10.0 mi NNW 6.9 mph - N/A   Clear
5:55 PM 66.0 °F - 46.2 °F 49% 29.89 in 10.0 mi NW 6.9 mph - N/A   Clear
6:15 PM 65.8 °F - 47.7 °F 52% 29.89 in 10.0 mi North 5.8 mph - N/A   Clear
6:35 PM 65.5 °F - 47.8 °F 53% 29.90 in 10.0 mi WNW 3.5 mph - N/A   Clear
6:55 PM 65.3 °F - 46.2 °F 50% 29.90 in 10.0 mi Calm Calm - N/A   Clear
7:15 PM 64.9 °F - 48.7 °F 56% 29.90 in 10.0 mi Calm Calm - N/A   Clear
7:35 PM 64.6 °F - 47.3 °F 53% 29.90 in 10.0 mi Calm Calm - N/A   Clear
7:55 PM 63.5 °F - 52.0 °F 66% 29.90 in 10.0 mi SW 3.5 mph - N/A   Clear
8:15 PM 63.0 °F - 47.8 °F 58% 29.90 in 10.0 mi Calm Calm - N/A   Clear
8:35 PM 62.8 °F - 48.6 °F 60% 29.91 in 10.0 mi Calm Calm - N/A   Clear
8:55 PM 60.4 °F - 54.3 °F 80% 29.91 in 10.0 mi Calm Calm - N/A   Clear
9:15 PM 60.4 °F - 52.9 °F 76% 29.91 in 10.0 mi Calm Calm - N/A   Clear
9:35 PM 58.1 °F - 55.2 °F 90% 29.93 in 10.0 mi Calm Calm - N/A   Clear
9:55 PM 57.2 °F - 55.6 °F 94% 29.94 in 10.0 mi Calm Calm - N/A   Clear
10:15 PM 56.5 °F - 54.1 °F 92% 29.94 in 10.0 mi Calm Calm - N/A   Clear
10:35 PM 55.4 °F - 52.3 °F 89% 29.94 in 10.0 mi Calm Calm - N/A   Clear
10:55 PM 54.9 °F - 53.6 °F 96% 29.95 in 10.0 mi Calm Calm - N/A   Clear
11:15 PM 54.5 °F - 53.2 °F 96% 29.95 in 10.0 mi Calm Calm - N/A   Clear
11:35 PM 52.7 °F - 52.7 °F 100% 29.95 in 10.0 mi Calm Calm - N/A   Clear
11:55 PM 52.3 °F - 52.3 °F 100% 29.95 in 10.0 mi Calm Calm - N/A   Clear